Home   Weather   Kawasaki   Past weeks

Flag for Japan Past Weather in Kawasaki, Japan — Yesterday and Last 2 Weeks

Now
52 °F

Partly sunny.


Feels Like: 49 °F
Forecast: 42 / 49 °F
Wind: 9 mph from Southeast

Location: Tokyo International Airport

Current Time: Feb 26, 2017 at 2:40:00 pm

Latest Report: Feb 26, 2017 at 2:00 pm


Visibility: N/A

Pressure: 30.01 "Hg

Humidity: 47%

Dew Point: 32 °F

Location of KawasakiLocation

Past Weather in Kawasaki — Graph

°F

Kawasaki Temperature Yesterday

Maximum temperature yesterday: 52 °F (at 2:30 pm)
Minimum temperature yesterday: 41 °F (at 12:00 am)
Average temperature yesterday: 45 °F

High & Low Weather Summary for the Past Weeks

 TemperatureHumidityPressure
High66 °F (Feb 17, 11:30 am)100% (Feb 20, 7:30 pm)30.33 "Hg (Feb 20, 7:30 pm)
Low34 °F (Feb 12, 5:30 am)19% (Feb 11, 1:00 pm)29.27 "Hg (Feb 20, 5:00 pm)
Average47 °F48%29.95 "Hg
* Reported Feb 11 1:00 pm — Feb 26 1:30 pm, Kawasaki, Weather by CustomWeather, © 2017

Note: Actual official high and low records may vary slightly from our data, if they occured in-between our weather recording intervals... More about our weather records

Advertising

Kawasaki Weather History for the Previous 24 Hours

Scroll right to see more
 ConditionsComfort  
Time TempWeatherWind HumidityBarometerVisibility
1:30 pm
Sun, Feb 26
54 °FPartly sunny.9 mph47%30.04 "HgN/A
1:00 pm52 °FPartly sunny.9 mph54%30.04 "HgN/A
12:30 pm52 °FPartly sunny.9 mph50%30.04 "HgN/A
12:00 pm50 °FPartly sunny.9 mph54%30.07 "HgN/A
11:30 am50 °FPartly sunny.7 mph54%30.07 "HgN/A
11:00 am48 °FPartly sunny.6 mph54%30.07 "HgN/A
10:30 am48 °FScattered clouds.6 mph54%30.09 "HgN/A
10:00 am48 °FScattered clouds.5 mph50%30.07 "HgN/A
9:30 am48 °FPassing clouds.5 mph50%30.09 "HgN/A
9:00 am46 °FPassing clouds.5 mph53%30.09 "HgN/A
8:30 am46 °FPassing clouds.2 mph57%30.09 "HgN/A
8:00 am45 °FPassing clouds.5 mph71%30.09 "HgN/A
7:30 am45 °FPassing clouds.3 mph66%30.07 "HgN/A
7:00 am41 °FPassing clouds.6 mph76%30.07 "HgN/A
6:30 am41 °FPassing clouds.6 mph76%30.07 "HgN/A
6:00 am41 °FPassing clouds.6 mph76%30.04 "HgN/A
5:30 am41 °FPassing clouds.5 mph76%30.04 "HgN/A
5:00 am41 °FPassing clouds.6 mph76%30.04 "HgN/A
4:30 am43 °FPassing clouds.5 mph76%30.01 "HgN/A
4:00 am43 °FPassing clouds.7 mph76%30.04 "HgN/A
3:30 am41 °FPassing clouds.6 mph81%30.01 "HgN/A
3:00 am43 °FPassing clouds.8 mph81%30.01 "HgN/A
2:30 am43 °FPassing clouds.10 mph87%30.01 "HgN/A
2:00 am45 °FPassing clouds.10 mph81%30.01 "HgN/A
1:30 am45 °FPassing clouds.13 mph87%30.01 "HgN/A
1:00 am45 °FPassing clouds.13 mph87%29.98 "HgN/A
12:30 am45 °FPassing clouds.7 mph93%29.98 "HgN/A
12:00 am46 °FPassing clouds.8 mph87%30.01 "HgN/A
11:30 pm
Sat, Feb 25
46 °FPassing clouds.10 mph87%29.98 "HgN/A
11:00 pm48 °FPassing clouds.10 mph87%30.01 "HgN/A
10:30 pm48 °FPassing clouds.9 mph82%30.01 "HgN/A
10:00 pm46 °FPassing clouds.6 mph82%30.01 "HgN/A
9:30 pm48 °FPassing clouds.8 mph82%30.01 "HgN/A
9:00 pm48 °FPassing clouds.10 mph82%30.01 "HgN/A
8:30 pm48 °FPassing clouds.9 mph82%30.01 "HgN/A
8:00 pm48 °FPassing clouds.9 mph76%30.01 "HgN/A
7:30 pm48 °FPassing clouds.10 mph76%30.01 "HgN/A
7:00 pm48 °FPassing clouds.12 mph76%29.98 "HgN/A
6:30 pm48 °FPassing clouds.10 mph76%29.98 "HgN/A
6:00 pm48 °FPassing clouds.10 mph71%29.98 "HgN/A
5:30 pm48 °FPartly sunny.13 mph62%29.98 "HgN/A
5:00 pm52 °FPartly sunny.12 mph41%29.98 "HgN/A
4:30 pm52 °FPassing clouds.13 mph47%29.98 "HgN/A
4:00 pm50 °FPassing clouds.13 mph62%29.98 "HgN/A
3:30 pm52 °FPassing clouds.10 mph50%29.95 "HgN/A
3:00 pm52 °FPassing clouds.10 mph50%29.95 "HgN/A
2:30 pm52 °FPassing clouds.12 mph50%29.95 "HgN/A
2:00 pm50 °FPassing clouds.13 mph54%29.95 "HgN/A
Weather by CustomWeather, © 2017

See weather overviewHow to use our weather pages